Regional Weather Roundup
Issued by NWS Wakefield, VA

Home | Current Version | Previous Version | Text Only | Print | Product List | Glossary Off
Versions: 1 2 3 4 5 6 7 8 9 10 11 12 13 14 15 16 17 18 19 20 21 22 23 24 25 26 27 28 29 30 31 32 33 34 35 36 37 38 39 40 41 42 43 44 45 46 47 48 49 50

833
ASUS41 KAKQ 170015
RWRAKQ

REGIONAL WEATHER ROUNDUP
NATIONAL WEATHER SERVICE WAKEFIELD VA
700 PM EST MON JAN 16 2017

Note: "fair" indicates few or no clouds below 12,000 feet with no
significant weather and/or obstructions to visibility. * = Denotes
station may not report precipitation (e.g., rain,snow,etc.),
thunder or fog.

VAZ042-051-052>054-056-170100-
NORTHERN VIRGINIA

CITY           SKY/WX    TMP DP  RH WIND       PRES   REMARKS
WASH NATIONAL  CLOUDY    43  33  68 S7        30.36F
DULLES         CLOUDY    43  32  65 S5        30.34F
FORT BELVOIR   CLOUDY    41  31  67 CALM      30.35F
QUANTICO       CLOUDY    42  36  79 CALM      30.37F
FREDERICKSBRG* CLOUDY    43  37  79 SE6       30.35F
STAFFORD*      CLOUDY    42  35  76 CALM      30.39F
WARRENTON      CLOUDY    44  37  76 S3        30.34S
CULPEPER*      DRIZZLE   44  41  89 CALM      30.35F
MANASSAS*      CLOUDY   N/A N/A N/A CALM      30.35F
LEESBURG*      CLOUDY    45  43  93 MISG      30.34F
WINCHESTER     CLOUDY    39  36  87 CALM      30.30S
FRONT ROYAL*   CLOUDY    41  37  87 CALM      30.30R
LURAY*         CLOUDY    46  43  87 SW8       30.29S
$$

VAZ048-049-060>072-079>083-170100-
CENTRAL AND SOUTH CENTRAL VIRGINIA

CITY           SKY/WX    TMP DP  RH WIND       PRES   REMARKS
RICHMOND       CLOUDY    42  38  85 SE3       30.36F
CHESTERFIELD*  CLOUDY    43  27  52 CALM      30.38F
PETERSBURG*    CLOUDY    43  37  81 CALM      30.38S
HANOVER        CLOUDY    43  36  76 CALM      30.38S
TAPPAHANNOCK*  CLOUDY    44  29  55 CALM      30.38S
QUINTON*       CLOUDY    43  38  85 E5        30.37S
CHARLOTTSVILLE CLOUDY    44  41  89 S6        30.32F FOG
GORDONSVILLE*  CLOUDY    42  41  97 CALM      30.33F
ORANGE*          N/A     43  43 100 CALM      30.36S
LOUISA*        CLOUDY    45  43  93 CALM      30.33F
BUMPASS*       CLOUDY    41  40  96 CALM      30.35S
FARMVILLE*     CLOUDY    45  43  93 CALM      30.34S
CREWE*         CLOUDY    44  44 100 SE3       30.35S
FORT PICKETT*  CLOUDY    43  39  88 SE3       30.35F
CHASE CITY*    CLOUDY    46  38  76 CALM      30.35S
CLARKSVILLE*   CLOUDY    45  37  76 CALM      30.36R
SOUTH HILL*    CLOUDY    44  40  85 CALM      30.41F
LAWRENCEVILLE* CLOUDY    44  40  88 MISG      30.36S
EMPORIA*       CLOUDY    41  41 100 CALM      30.39S
$$

VAZ088>098-170100-
SOUTHEAST VIRGINIA

CITY           SKY/WX    TMP DP  RH WIND       PRES   REMARKS
NORFOLK        CLOUDY    43  38  82 CALM      30.38F
VIRGINIA BEACH CLOUDY    43  37  79 CALM      30.38F
NORFOLK NAVAL  CLOUDY    43  37  79 E5        30.40F
WEST POINT*    CLOUDY    43  35  73 SE6       30.40S
SALUDA*        CLOUDY    42  34  74 CALM      30.38F
NEWPORT NEWS   CLOUDY    43  35  73 SE6       30.38F
LANGLEY AFB    CLOUDY    43  35  72 SE3       30.38F
FORT EUSTIS    CLOUDY    43  37  78 CALM      30.36S
WILLIAMSBURG*  CLOUDY    45  37  76 CALM      30.39S
HR EXEC AP*    CLOUDY    45  37  76 CALM      30.37S
FRANKLIN*      CLOUDY    44  38  79 CALM      30.38F
US460-WAKEFLD  CLOUDY    43  38  82 CALM      30.38S
$$

VAZ020-022-025-037-045-170100-
WEST CENTRAL AND SOUTHWEST VIRGINIA

CITY           SKY/WX    TMP DP  RH WIND       PRES   REMARKS
STAUNTON*      CLOUDY    42  39  90 S6        30.31S
WAYNESBORO*    CLOUDY    41  39  95 CALM      30.30S
HOT SPRINGS VA CLOUDY    50  50 100 SW10      30.26R
LYNCHBURG      CLOUDY    39  37  92 CALM      30.35R
DANVILLE       CLOUDY    46  35  65 VRB3      30.35R
SOUTH BOSTON*  FAIR      44  36  75 CALM      30.36R
MARTINSVILLE   CLOUDY    47  42  81 CALM      30.36R
ROANOKE        CLOUDY    45  42  89 CALM      30.35R
BLACKSBURG     FOG       42  42 100 E5        30.33S VSB 1/4
DUBLIN*        CLOUDY    46  46 100 E3        30.31S FOG
MARION*        FOG       50  49  96 E6        30.31R VSB 1/2
HILLSVILLE*    FOG       42  42 100 CALM      30.28S VSB 1/2
RICHLANDS*     CLOUDY   N/A N/A N/A SW3       30.26R
WISE*          CLOUDY    57  46  67 CALM      30.25F
ABINGDON*      CLOUDY    58  47  67 CALM      30.25S
$$

MDZ021>025-VAZ099-100-170100-
SOUTHERN MARYLAND AND THE DELMARVA PENINSULA

CITY           SKY/WX    TMP DP  RH WIND       PRES   REMARKS
PATUXENT RIVER CLOUDY    41  27  57 SE3       30.37F
BAY BRIDGE APT CLOUDY    41  30  65 S6        30.36F
LEONARDTOWN    CLOUDY    41  28  60 CALM      30.38F
DOVER          CLOUDY    38  34  87 SE5       30.37S
GEORGETOWN     CLOUDY    41  31  67 CALM      30.39S
EASTON         CLOUDY    43  27  52 S3        30.40F
CAMBRIDGE      CLOUDY    41  32  70 SE3       30.37F
SALISBURY      CLOUDY    42  33  70 S6        30.38F
OCEAN CITY     CLOUDY    41  32  70 CALM      30.39F
WALLOPS ISLAND CLOUDY    41  34  76 SE3       30.39F
ACCOMACK*      CLOUDY    42  35  76 CALM      30.39S
$$

NCZ012>017-030>032-170100-
NORTH CENTRAL AND EASTERN NORTH CAROLINA

CITY           SKY/WX    TMP DP  RH WIND       PRES   REMARKS
ROANOKE RAPIDS CLOUDY    45  41  87 CALM      30.38S
RALEIGH        CLOUDY    49  36  61 S5        30.37S
ELIZABETH CITY CLOUDY    45  39  79 NE5       30.39F
AHOSKIE*         N/A     44  39  81 CALM      30.39S
EDENTON*       CLOUDY    47  41  78 CALM      30.39F
CURRITUCK*     CLOUDY    45  38  77 CALM      30.39F
KILL DEVIL HLS NOT AVBL
MANTEO         CLOUDY    45  41  86 N5        30.38F
CAPE HATTERAS  CLEAR     48  43  82 VRB7      30.36F
TARBORO*       NOT AVBL
GOLDSBORO      CLOUDY    51  43  74 CALM      30.36S
WASHINGTON     CLOUDY    47  41  77 E3        30.39F
GREENVILLE     CLOUDY    50  43  76 CALM      30.39S
NEW BERN       CLOUDY    51  44  77 NE5       30.39S
WILMINGTON     CLOUDY    54  48  80 NE6       30.36S
$$

VAZ048-170100-
ELSEWHERE

CITY           SKY/WX    TMP DP  RH WIND       PRES   REMARKS
HARRISBURG PA  CLOUDY    36  30  79 CALM      30.34F
BALTIMORE      CLOUDY    40  30  67 CALM      30.35F
ANNAPOLIS      CLOUDY    42  31  64 S8        30.36F
ANDREWS AFB    CLOUDY    42  30  62 S3        30.34F
PHILADELPHIA   CLOUDY    39  25  57 S5        30.37F
HENDERSON NC   CLOUDY    45  34  67 S6        30.36R
GREENSBORO     MOCLDY    47  42  83 S6        30.32F
ROCKY MOUNT    CLOUDY    48  42  80 CALM      30.38F
$$

VAZ100-170100-
MARINE

STATION/POSITION TIME  TEMP    WIND        PRES    WAVE   SWELL
                       AIR SEA DIR/SP/G            HT/PER HT/PER
                 (UTC) (F)     (DEG/KT/KT) (MB)    (FT/S) (FT/S)
CAPE MAY NJ      2348   38 39  130/  2/  2 1028.4F
LEWES DE         2348   39 41  160/  4/  5 1028.6F
OCEAN-CITY-INLET 2348   41 43  190/  3/  5 1029.3F
WACHAPREAGUE VA  2348   42 45   60/  3/  4 1028.9F
THOMAS POINT MD  0000   40 38  170/  7/  8   N/A
GOOSES REEF MD   2350   40     190/  8/ 10 1029.0F
COVE POINT MD    2348   39     190/  7/  8 1028.9F
SOLOMONS ISLAND  2348   40 41  140/  5/  6   N/A
BISHOPS HEAD MD  2348   40 41  150/  2/  3 1028.9F
PINEY POINT MD   2348          160/  8/  8   N/A
POTOMAC MD       2350   40     160/  6/  6 1027.8F
CAMBRIDGE MD     2348   42 39  160/  4/  6 1027.7F
LEWISETTA VA     2348   42 42  190/  5/  6 1028.2F
RAPPAHANNOCK LGT 2348           70/  1/  1 1029.5S
STINGRAY PT      2350   40     140/  4/  6 1029.3F
YORK RVR RNG VA  2348   42     150/  3/  3 1028.2F
YORKTOWN VA      2348   43 42  150/  5/  6 1028.6F
JAMESTOWN VA     2350   43     130/  6/  8   N/A
DOMINION TERM VA 2348   42      80/  4/  6 1028.9F
KIPTOPEKE VA     2348      43   80/  1/  2   N/A
CHES BAY BRIDGE  2348   41 42   CALM  /  1 1028.9F
CAPE HENRY VA    2348   42      CALM  /  1   N/A
WILLOUBY STN VA  2348   42     100/  4/  5 1029.7F
S CRANEY ISL VA  2348   43      90/  3/  4 1028.7F
CAPE HENRY BUOY  2342      47                N/A     2/ 7
OFFSHORE WE BUOY 2351      49                N/A     3/11   2/11
64NM E OF VA BCH 2350   53 58   40/  6/  8 1028.1F   3/ 9   3/ 9
DUCK PIER NC     2348   45 44  350/  8/  8 1028.2F
44100 DUCK FRF   2335      47                N/A     3/ 8   2/11
44056 DUCK FRF   2330      44                N/A     3/ 9
OREGON INLET NC  2342   46 48  350/  6/  8 1028.3F
HATTERAS NC      2348   47 54  360/ 10/ 12 1027.7S
DIAMOND SHLS NC  2350   55 73   10/ 14/ 16 1027.6F   3/ 8   2/ 8
CAPE LOOKOUT NC  2300   50      10/  5/  7 1028.1S
$$




USA.gov is the U.S. government's official web portal to all federal, state and local government web resources and services.